Regional Weather Roundup
Issued by NWS

Home | Current Version | Previous Version | Graphics & Text | Print | Product List | Glossary On
Versions: 1 2 3 4 5 6 7 8 9 10 11 12 13 14 15 16 17 18 19 20 21 22 23 24 25 26 27 28 29 30 31 32 33 34 35 36 37 38 39 40 41 42 43 44 45 46 47 48 49 50
000
ASUS43 KLSX 270707
RWRMO

WEATHER SUMMARY FOR MISSOURI
NATIONAL WEATHER SERVICE SPRINGFIELD MO
200 AM CDT FRI MAR 27 2015

NOTE: "FAIR" INDICATES FEW OR NO CLOUDS BELOW 12,000 FEET WITH NO
       SIGNIFICANT WEATHER AND/OR OBSTRUCTIONS TO VISIBILITY.
       CURRENT SKY AND/OR WEATHER CONDITIONS ARE NOT AVAILABLE FOR
       CHILLICOTHE AND FARMINGTON.

MOZ001>031-035>038-043-044-053-054-270800-
...NORTHERN AND WESTERN MISSOURI...

CITY           SKY/WX    TMP DP  RH WIND       PRES   REMARKS
KANSAS CTY INT CLOUDY    36  33  89 N10       30.16R WCI  28
KANSAS C DTWN  CLOUDY    39  33  79 N9        30.16S
LEE`S SUMMIT   CLOUDY    38  34  85 N12       30.15R
ST JOSEPH      CLOUDY    37  33  85 N12       30.19S WCI  29
CHILLICOTHE      N/A     37  32  82 N5        30.17S
KIRKSVILLE     CLOUDY    35  28  75 N12       30.14S WCI  27

$$
MOZ066>068-077>081-088>096-101>105-270800-
...SOUTHWEST MISSOURI...

CITY           SKY/WX    TMP DP  RH WIND       PRES   REMARKS
SPRINGFIELD    LGT RAIN  42  32  67 NW6       30.09R
JOPLIN         CLOUDY    40  37  89 NE7       30.11S

$$
MOZ032>034-039>042-045>050-055>058-069>072-270800-
...CENTRAL MISSOURI...

CITY           SKY/WX    TMP DP  RH WIND       PRES   REMARKS
COLUMBIA       CLOUDY    39  30  70 N13       30.10R
JEFFERSON CITY CLOUDY    42  27  55 N12       30.10R
ROLLA          CLOUDY    39  28  64 MISG      30.04R
SEDALIA        CLOUDY    41  32  70 N13       30.12S
WHITEMAN AFB   MOCLDY    39  32  75 N12       30.11F
WARRENSBURG    CLOUDY    37  34  87 N12       30.14R WCI  30
OSAGE BEACH    CLOUDY    39  34  81 W3        30.08S

$$
MOZ051-052-059>065-270800-
...EAST CENTRAL MISSOURI...

CITY           SKY/WX    TMP DP  RH WIND       PRES   REMARKS
ST LOUIS INTL  CLOUDY    41  28  60 N9        30.06R
SPIRIT OF STL  CLOUDY    40  28  62 N7        30.06R
ST CHARLES     CLOUDY    38  28  67 N12       30.07R

$$
MOZ072>076-082>087-097>100-106>115-270800-
...SOUTH CENTRAL AND SOUTHEAST MISSOURI...

CITY           SKY/WX    TMP DP  RH WIND       PRES   REMARKS
CAPE GIRARDEAU CLEAR     33  32  96 SE3       30.03F
FARMINGTON     CLOUDY    34  28  80 W3        30.08R
POPLAR BLUFF   CLEAR     36  33  89 W3        30.04S
WEST PLAINS    CLOUDY    40  29  64 MISG      30.08R

$$


USA.gov is the U.S. government's official web portal to all federal, state and local government web resources and services.